Back to catalog

SL-16 DEB

AliveLEO
NORAD 22458·DEBRIS·🇷🇺 Russia

Launched Dec 25, 1992 from Baikonur Cosmodrome

Loading…

Next Passes (next 24 hours)

TLE

FreshSource: Space-Track

Epoch: Sep 13, 2026, 16:40 UTC

1 22458U 92093EX  26256.69447690  .00000153  00000-0  12687-3 0  9996
2 22458  70.8557 356.8476 0070275 112.5708  37.0058 14.02714502721211

Track SL-16 DEB in real time with AllMySat

Download on the App Store